OK1VCF-8 Weather Reports


time (UTC)temp
C
wind
direction
speed
KPH
gust
KPH
rain 1hr
cm
rain 24hr
cm
rain mn
cm
humidity
%
barometer
mb
20260903123623 24 0 0.0 0.0 0.00 0.00 0.00 42 1020.3
20260903122859 25 0 0.0 0.0 0.00 0.00 0.00 40 1020.2
20260903122137 24 0 0.0 0.0 0.00 0.00 0.00 42 1020.2
20260903121415 25 0 0.0 0.0 0.00 0.00 0.00 42 1020.5
20260903120353 25 0 0.0 0.0 0.00 0.00 0.00 41 1020.4
20260903115626 25 0 0.0 0.0 0.00 0.00 0.00 40 1020.4
20260903114854 25 0 0.0 0.0 0.00 0.00 0.00 42 1020.5
20260903114126 25 0 0.0 0.0 0.00 0.00 0.00 43 1020.6
20260903113359 25 0 0.0 0.0 0.00 0.00 0.00 41 1020.7
20260903112629 25 0 0.0 0.0 0.00 0.00 0.00 41 1020.8
20260903111903 25 0 0.0 0.0 0.00 0.00 0.00 42 1020.6
20260903111146 25 0 0.0 0.0 0.00 0.00 0.00 43 1020.9
20260903110426 24 0 0.0 0.0 0.00 0.00 0.00 43 1021.2
20260903105707 25 0 0.0 0.0 0.00 0.00 0.00 41 1021.2
20260903104950 25 0 0.0 0.0 0.00 0.00 0.00 42 1021.2
20260903104232 25 0 0.0 0.0 0.00 0.00 0.00 40 1021.4
20260903103514 25 0 0.0 0.0 0.00 0.00 0.00 42 1021.5
20260903102756 25 0 0.0 0.0 0.00 0.00 0.00 43 1021.4
20260903102037 24 0 0.0 0.0 0.00 0.00 0.00 43 1021.6
20260903101034 23 0 0.0 0.0 0.00 0.00 0.00 44 1021.7
20260903100315 23 0 0.0 0.0 0.00 0.00 0.00 45 1021.8
20260903095555 23 0 0.0 0.0 0.00 0.00 0.00 47 1021.8
20260903094838 22 0 0.0 0.0 0.00 0.00 0.00 48 1021.8
20260903094121 22 0 0.0 0.0 0.00 0.00 0.00 48 1021.8
20260903093402 22 0 0.0 0.0 0.00 0.00 0.00 48 1021.7
20260903092644 22 0 0.0 0.0 0.00 0.00 0.00 47 1021.7
20260903091925 22 0 0.0 0.0 0.00 0.00 0.00 49 1021.6
20260903091208 23 0 0.0 0.0 0.00 0.00 0.00 48 1021.8
20260903090450 22 0 0.0 0.0 0.00 0.00 0.00 49 1021.7
20260903085731 22 0 0.0 0.0 0.00 0.00 0.00 50 1021.8
20260903085013 22 0 0.0 0.0 0.00 0.00 0.00 50 1021.8
20260903084256 22 0 0.0 0.0 0.00 0.00 0.00 50 1021.8
20260903083538 22 0 0.0 0.0 0.00 0.00 0.00 56 1021.8
20260903082820 22 0 0.0 0.0 0.00 0.00 0.00 57 1021.9
20260903081818 22 0 0.0 0.0 0.00 0.00 0.00 61 1021.8
20260903081059 21 0 0.0 0.0 0.00 0.00 0.00 62 1022.0
20260903080341 21 0 0.0 0.0 0.00 0.00 0.00 62 1022.1
20260903074202 18 0 0.0 0.0 0.00 0.00 0.00 66 1022.0
20260903073444 18 0 0.0 0.0 0.00 0.00 0.00 68 1022.0
20260903072726 18 0 0.0 0.0 0.00 0.00 0.00 69 1022.2
20260903072003 18 0 0.0 0.0 0.00 0.00 0.00 70 1022.2
20260903071238 18 0 0.0 0.0 0.00 0.00 0.00 70 1022.2
20260903070514 18 0 0.0 0.0 0.00 0.00 0.00 71 1022.1
20260903065751 17 0 0.0 0.0 0.00 0.00 0.00 73 1022.3
20260903065026 17 0 0.0 0.0 0.00 0.00 0.00 74 1022.2
20260903064303 17 0 0.0 0.0 0.00 0.00 0.00 75 1022.2
20260903063539 17 0 0.0 0.0 0.00 0.00 0.00 76 1022.2
20260903062526 16 0 0.0 0.0 0.00 0.00 0.00 80 1022.2
20260903060328 15 0 0.0 0.0 0.00 0.00 0.00 80 1022.2
20260903055606 16 0 0.0 0.0 0.00 0.00 0.00 79 1022.1
20260903054844 16 0 0.0 0.0 0.00 0.00 0.00 79 1022.0
20260903054127 16 0 0.0 0.0 0.00 0.00 0.00 78 1022.0
20260903053406 16 0 0.0 0.0 0.00 0.00 0.00 80 1022.0
20260903052648 16 0 0.0 0.0 0.00 0.00 0.00 81 1021.8
20260903051931 15 0 0.0 0.0 0.00 0.00 0.00 84 1021.8
20260903051214 15 0 0.0 0.0 0.00 0.00 0.00 86 1021.8
20260903050457 14 0 0.0 0.0 0.00 0.00 0.00 86 1021.7
20260903045738 14 0 0.0 0.0 0.00 0.00 0.00 86 1021.8
20260903045022 14 0 0.0 0.0 0.00 0.00 0.00 86 1021.8
20260903044304 15 0 0.0 0.0 0.00 0.00 0.00 86 1021.6
20260903043302 15 0 0.0 0.0 0.00 0.00 0.00 86 1021.6
20260903042543 15 0 0.0 0.0 0.00 0.00 0.00 86 1021.6
20260903041825 15 0 0.0 0.0 0.00 0.00 0.00 86 1021.6
20260903041107 15 0 0.0 0.0 0.00 0.00 0.00 86 1021.6
20260903040349 15 0 0.0 0.0 0.00 0.00 0.00 87 1021.6
20260903035631 14 0 0.0 0.0 0.00 0.00 0.00 88 1021.6
20260903034913 14 0 0.0 0.0 0.00 0.00 0.00 86 1021.6
20260903034156 15 0 0.0 0.0 0.00 0.00 0.00 86 1021.6
20260903033439 15 0 0.0 0.0 0.00 0.00 0.00 86 1021.6
20260903032722 15 0 0.0 0.0 0.00 0.00 0.00 86 1021.6
20260903032005 15 0 0.0 0.0 0.00 0.00 0.00 85 1021.6
20260903031247 15 0 0.0 0.0 0.00 0.00 0.00 86 1021.7
20260903030529 15 0 0.0 0.0 0.00 0.00 0.00 87 1021.7
20260903025811 15 0 0.0 0.0 0.00 0.00 0.00 87 1021.7
20260903025053 15 0 0.0 0.0 0.00 0.00 0.00 86 1021.5
20260903024053 15 0 0.0 0.0 0.00 0.00 0.00 88 1021.6
20260903021911 14 0 0.0 0.0 0.00 0.00 0.00 90 1021.4
20260903021154 14 0 0.0 0.0 0.00 0.00 0.00 90 1021.4
20260903020436 14 0 0.0 0.0 0.00 0.00 0.00 90 1021.4
20260903015720 13 0 0.0 0.0 0.00 0.00 0.00 90 1021.4
20260903015003 13 0 0.0 0.0 0.00 0.00 0.00 90 1021.6
20260903014246 13 0 0.0 0.0 0.00 0.00 0.00 90 1021.4
20260903013531 14 0 0.0 0.0 0.00 0.00 0.00 90 1021.5
20260903012814 14 0 0.0 0.0 0.00 0.00 0.00 90 1021.4
20260903012058 14 0 0.0 0.0 0.00 0.00 0.00 90 1021.6
20260903011340 13 0 0.0 0.0 0.00 0.00 0.00 90 1021.8
20260903010617 13 0 0.0 0.0 0.00 0.00 0.00 90 1021.6
20260903005855 13 0 0.0 0.0 0.00 0.00 0.00 90 1021.7
20260903004842 13 0 0.0 0.0 0.00 0.00 0.00 88 1021.6
20260903004112 13 0 0.0 0.0 0.00 0.00 0.00 88 1021.6
20260903003343 14 0 0.0 0.0 0.00 0.00 0.00 88 1021.6
20260903002616 14 0 0.0 0.0 0.00 0.00 0.00 86 1021.4
20260903001845 14 0 0.0 0.0 0.00 0.00 0.00 85 1021.5
20260903001113 15 0 0.0 0.0 0.00 0.00 0.00 85 1021.6
20260903000341 15 0 0.0 0.0 0.00 0.00 0.00 85 1021.4
20260902235612 15 0 0.0 0.0 0.00 0.00 0.00 85 1021.6
20260902234840 15 0 0.0 0.0 0.00 0.00 0.00 85 1021.4
20260902234107 15 0 0.0 0.0 0.00 0.00 0.00 84 1021.5
20260902233334 15 0 0.0 0.0 0.00 0.00 0.00 84 1021.4
20260902232602 15 0 0.0 0.0 0.00 0.00 0.00 82 1021.4
20260902231841 15 0 0.0 0.0 0.00 0.00 0.00 82 1021.4
20260902231124 15 0 0.0 0.0 0.00 0.00 0.00 82 1021.5
20260902230407 15 0 0.0 0.0 0.00 0.00 0.00 82 1021.4
20260902225407 15 0 0.0 0.0 0.00 0.00 0.00 81 1021.5
20260902224650 15 0 0.0 0.0 0.00 0.00 0.00 81 1021.4
20260902223931 15 0 0.0 0.0 0.00 0.00 0.00 80 1021.4
20260902223216 15 0 0.0 0.0 0.00 0.00 0.00 82 1021.5
20260902222458 15 0 0.0 0.0 0.00 0.00 0.00 81 1021.5
20260902220318 15 0 0.0 0.0 0.00 0.00 0.00 80 1021.4
20260902215600 15 0 0.0 0.0 0.00 0.00 0.00 80 1021.4
20260902214843 15 0 0.0 0.0 0.00 0.00 0.00 79 1021.4
20260902214127 15 0 0.0 0.0 0.00 0.00 0.00 79 1021.4
20260902213410 16 0 0.0 0.0 0.00 0.00 0.00 78 1021.6
20260902212653 16 0 0.0 0.0 0.00 0.00 0.00 78 1021.4
20260902211935 16 0 0.0 0.0 0.00 0.00 0.00 76 1021.4
20260902211218 16 0 0.0 0.0 0.00 0.00 0.00 76 1021.4
20260902210216 16 0 0.0 0.0 0.00 0.00 0.00 76 1021.4
20260902205458 17 0 0.0 0.0 0.00 0.00 0.00 74 1021.4
20260902204741 17 0 0.0 0.0 0.00 0.00 0.00 74 1021.4
20260902204024 17 0 0.0 0.0 0.00 0.00 0.00 72 1021.4
20260902203306 18 0 0.0 0.0 0.00 0.00 0.00 70 1021.4
20260902202549 17 0 0.0 0.0 0.00 0.00 0.00 69 1021.2
20260902201832 18 0 0.0 0.0 0.00 0.00 0.00 66 1021.2
20260902201114 18 0 0.0 0.0 0.00 0.00 0.00 66 1021.1
20260902200356 18 0 0.0 0.0 0.00 0.00 0.00 66 1021.0
20260902194213 18 0 0.0 0.0 0.00 0.00 0.00 64 1021.0
20260902193455 18 0 0.0 0.0 0.00 0.00 0.00 63 1021.0
20260902192739 18 0 0.0 0.0 0.00 0.00 0.00 63 1021.0
20260902192021 18 0 0.0 0.0 0.00 0.00 0.00 64 1020.9
20260902191019 18 0 0.0 0.0 0.00 0.00 0.00 63 1021.0
20260902190302 18 0 0.0 0.0 0.00 0.00 0.00 62 1021.0
20260902185542 18 0 0.0 0.0 0.00 0.00 0.00 62 1021.0
20260902184826 19 0 0.0 0.0 0.00 0.00 0.00 62 1021.0
20260902184107 20 0 0.0 0.0 0.00 0.00 0.00 60 1020.8
20260902183350 20 0 0.0 0.0 0.00 0.00 0.00 58 1020.8
20260902182633 21 0 0.0 0.0 0.00 0.00 0.00 56 1020.7
20260902181914 21 0 0.0 0.0 0.00 0.00 0.00 56 1020.4
20260902181157 21 0 0.0 0.0 0.00 0.00 0.00 56 1020.2
20260902180437 21 0 0.0 0.0 0.00 0.00 0.00 55 1020.1
20260902175720 21 0 0.0 0.0 0.00 0.00 0.00 54 1020.0
20260902175003 21 0 0.0 0.0 0.00 0.00 0.00 54 1020.0
20260902174244 21 0 0.0 0.0 0.00 0.00 0.00 53 1019.9
20260902173524 21 0 0.0 0.0 0.00 0.00 0.00 52 1020.0
20260902172806 22 0 0.0 0.0 0.00 0.00 0.00 50 1019.9
20260902171804 22 0 0.0 0.0 0.00 0.00 0.00 48 1019.8
20260902171045 22 0 0.0 0.0 0.00 0.00 0.00 48 1019.8
20260902170325 22 0 0.0 0.0 0.00 0.00 0.00 48 1020.0
20260902165605 23 0 0.0 0.0 0.00 0.00 0.00 48 1020.0
20260902164847 23 0 0.0 0.0 0.00 0.00 0.00 46 1020.0
20260902164130 23 0 0.0 0.0 0.00 0.00 0.00 46 1020.0
20260902163412 23 0 0.0 0.0 0.00 0.00 0.00 44 1020.0
20260902162653 25 0 0.0 0.0 0.00 0.00 0.00 42 1020.0
20260902161934 28 0 0.0 0.0 0.00 0.00 0.00 36 1020.0
20260902161215 31 0 0.0 0.0 0.00 0.00 0.00 32 1020.0
20260902160457 31 0 0.0 0.0 0.00 0.00 0.00 32 1019.9
20260902154315 30 0 0.0 0.0 0.00 0.00 0.00 34 1020.1
20260902153556 26 0 0.0 0.0 0.00 0.00 0.00 41 1020.2
20260902152553 27 0 0.0 0.0 0.00 0.00 0.00 37 1020.2
20260902151836 30 0 0.0 0.0 0.00 0.00 0.00 34 1020.3
20260902151116 26 0 0.0 0.0 0.00 0.00 0.00 38 1020.4
20260902150359 25 0 0.0 0.0 0.00 0.00 0.00 40 1020.4
20260902145639 25 0 0.0 0.0 0.00 0.00 0.00 40 1020.6
20260902144919 25 0 0.0 0.0 0.00 0.00 0.00 40 1020.5
20260902144201 25 0 0.0 0.0 0.00 0.00 0.00 41 1020.6
20260902143442 25 0 0.0 0.0 0.00 0.00 0.00 40 1020.6
20260902142723 25 0 0.0 0.0 0.00 0.00 0.00 40 1020.6
20260902142003 25 0 0.0 0.0 0.00 0.00 0.00 40 1020.8
20260902141243 26 0 0.0 0.0 0.00 0.00 0.00 40 1020.8
20260902140524 26 0 0.0 0.0 0.00 0.00 0.00 38 1020.7
20260902135806 27 0 0.0 0.0 0.00 0.00 0.00 37 1020.9
20260902135047 28 0 0.0 0.0 0.00 0.00 0.00 35 1020.8
20260902134329 28 0 0.0 0.0 0.00 0.00 0.00 36 1021.0
20260902133325 26 0 0.0 0.0 0.00 0.00 0.00 39 1021.0
20260902132605 27 0 0.0 0.0 0.00 0.00 0.00 38 1021.0
20260902131845 27 0 0.0 0.0 0.00 0.00 0.00 39 1021.3
20260902131124 27 0 0.0 0.0 0.00 0.00 0.00 38 1021.4
20260902130358 28 0 0.0 0.0 0.00 0.00 0.00 38 1021.4
20260902125629 27 0 0.0 0.0 0.00 0.00 0.00 36 1021.4
20260902124851 27 0 0.0 0.0 0.00 0.00 0.00 38 1021.4
20260902124119 26 0 0.0 0.0 0.00 0.00 0.00 37 1021.4